Dewpoint
56 56 56 56 55 55 56 56 56 56 56 56 56 56 56 56 56 56 55 55 55 55 55 55 56 56 56 56 56 57 57 55 54 52 49 42 50 55 66 66 65 67 64 54 32 27 25 31 38 38 45 51 51 52 54 65 68 63 57 55 54 55 56 59 58 60 62 59 63 63 64 60 59 63 63 61 60 60 60 59 58 60 60 61 63 64 64 65
56 56 56 55 56 56 56 56 55 55 56 56 56 56 56 56 55 55 55 55 55 55 55 55 55 56 56 56 57 57 57 55 53 52 49 55 60 64 66 68 70 70 61 44 31 27 24 28 35 40 45 49 52 53 62 62 66 60 58 56 54 57 57 61 59 62 61 62 64 64 63 63 62 63 63 57 58 58 57 58 58 59 60 61 62 63 64 64
56 56 56 56 56 56 56 55 56 56 56 56 56 55 55 55 55 55 56 55 55 55 55 55 55 56 56 56 57 58 56 52 53 48 48 66 63 67 66 67 71 68 43 34 26 26 24 31 27 30 42 44 49 56 61 62 64 62 57 54 55 58 59 63 64 62 65 65 63 62 64 62 63 65 66 58 56 58 56 56 58 59 59 60 62 63 63 65
56 56 56 56 56 56 56 56 55 55 55 55 56 56 56 56 56 55 55 55 55 55 55 56 56 56 57 57 57 57 54 52 41 44 48 69 68 66 68 68 71 69 28 22 25 24 27 22 27 28 34 37 43 51 59 61 59 61 57 55 56 60 59 64 64 64 66 64 64 63 64 63 66 66 65 59 55 56 57 57 58 58 59 60 62 63 64 66
56 56 56 56 56 56 56 56 55 55 55 55 55 55 55 55 55 55 55 55 55 55 55 56 56 56 57 57 58 57 53 38 39 48 51 71 73 66 68 70 69 64 30 25 22 23 18 21 30 36 36 38 43 49 50 60 59 59 58 63 64 63 60 65 65 66 66 66 64 63 62 62 67 66 64 57 54 54 57 59 59 60 60 61 62 63 65 66
56 56 56 56 56 56 56 56 56 56 56 56 56 56 56 55 56 55 55 55 55 55 56 56 56 57 57 58 57 55 42 28 32 37 74 71 72 69 68 72 72 51 31 28 24 27 21 28 30 36 41 40 44 41 45 58 60 58 62 64 63 64 63 65 65 66 66 64 63 63 65 66 65 64 63 63 57 57 60 59 60 60 61 62 63 64 64 65
56 56 56 56 56 56 56 55 55 55 55 55 55 55 55 55 55 55 55 55 55 55 56 56 56 57 57 58 55 53 41 37 43 41 71 71 72 71 68 69 65 34 30 28 24 25 31 36 34 40 42 43 43 41 52 58 61 61 61 63 63 65 64 64 64 65 65 64 63 66 67 63 64 60 63 62 62 62 61 60 60 61 61 62 63 63 64 64
56 56 56 56 56 56 56 56 55 55 55 55 55 55 55 55 55 55 55 55 55 56 56 56 56 57 58 56 53 47 46 41 44 62 73 71 68 70 66 56 41 36 29 23 21 24 35 35 36 40 44 42 41 40 58 61 62 62 62 63 63 64 65 64 64 65 65 65 66 66 64 64 64 63 63 61 63 61 61 60 60 60 60 61 62 62 63 63
56 56 56 56 56 56 56 56 56 56 55 55 55 55 54 54 54 55 55 55 55 55 56 56 57 57 58 56 51 39 40 45 49 68 66 63 61 50 47 45 39 35 33 32 30 26 38 39 37 38 38 38 37 30 58 58 59 63 63 64 64 63 64 65 65 65 65 65 65 64 63 63 64 64 62 62 63 60 59 59 60 60 60 59 60 61 62 62
56 56 56 56 56 56 56 56 56 56 55 55 55 55 54 55 55 55 55 55 55 56 56 57 58 58 56 53 40 32 36 41 64 63 59 60 51 38 36 35 34 32 29 33 37 37 38 39 40 43 42 38 39 51 54 60 59 63 63 63 63 63 63 64 63 64 65 64 65 62 62 63 64 63 57 62 62 60 59 59 59 59 59 59 60 60 61 61
56 56 56 56 56 56 56 56 56 56 55 55 55 54 55 55 55 55 55 56 56 56 56 57 57 58 54 54 14 25 35 40 59 59 57 54 44 35 28 32 30 29 26 32 33 36 39 41 43 40 39 33 42 61 61 62 64 64 64 64 64 65 64 64 64 64 65 63 66 63 62 63 65 64 57 59 60 59 58 58 58 59 58 59 59 60 60 60
56 56 56 56 56 56 56 56 56 55 55 55 54 54 55 55 55 55 55 56 56 57 57 58 58 56 55 50 31 22 40 40 59 55 54 44 36 34 30 30 28 26 25 26 29 32 36 38 39 38 32 32 30 62 62 64 64 64 64 61 63 64 63 65 62 64 66 64 64 62 60 59 60 60 60 59 60 59 57 58 58 58 58 59 59 59 60 60
56 56 56 56 56 56 56 56 56 56 55 54 54 54 55 55 55 55 56 56 56 57 57 58 58 57 54 43 48 44 47 48 40 53 51 41 35 32 30 29 27 27 24 26 29 30 31 33 36 32 34 31 28 53 62 64 63 62 61 61 60 60 59 62 65 65 64 63 64 62 53 56 57 61 61 61 59 58 57 57 57 57 58 59 59 59 60 60
56 56 56 56 56 56 56 56 56 55 55 54 54 54 54 55 55 56 56 56 57 57 57 58 57 56 52 45 47 52 51 48 46 44 48 46 37 33 32 28 27 28 29 29 28 27 26 24 25 20 25 24 48 63 62 62 62 59 59 57 56 56 56 62 63 65 62 66 66 64 52 54 57 61 63 59 59 57 56 57 57 57 58 58 59 59 59 59
56 56 56 56 56 56 56 56 55 54 55 54 54 54 54 54 55 56 57 57 58 57 57 58 58 53 50 48 51 53 66 58 39 34 43 39 35 33 31 32 26 23 23 26 26 25 24 26 26 28 25 34 58 60 59 59 58 59 53 52 54 54 56 60 64 63 60 63 67 59 52 54 57 59 62 59 59 58 56 56 56 57 57 57 58 58 58 58
56 56 56 56 56 55 55 55 55 54 54 54 54 54 54 55 56 56 57 58 58 58 58 56 57 54 50 40 35 52 35 22 21 26 33 38 35 31 31 30 31 29 24 22 22 21 20 22 25 26 28 30 51 58 58 55 55 58 53 52 53 54 56 59 61 65 67 64 65 62 53 57 55 59 60 59 58 57 55 55 56 56 57 56 57 57 57 57
56 56 56 55 55 55 55 55 55 54 54 54 54 54 54 55 55 57 58 59 59 58 56 51 56 55 30 31 41 32 29 32 31 32 29 33 32 31 25 27 27 26 26 24 32 28 28 27 28 29 23 23 33 56 54 49 50 53 51 52 54 54 57 56 60 64 64 64 60 63 57 57 56 59 61 59 58 57 55 55 56 56 56 56 56 56 56 56
56 56 55 55 55 55 55 55 54 54 53 53 54 53 53 55 58 57 58 59 57 55 53 54 53 42 29 34 28 28 30 35 32 32 29 33 28 25 24 24 23 23 24 23 23 26 26 20 23 23 20 21 24 43 50 48 50 52 52 51 52 56 57 56 57 60 63 63 61 61 57 56 56 60 60 58 58 56 54 55 55 54 55 55 55 55 55 55
56 55 55 55 55 55 55 54 54 53 54 54 54 56 57 56 55 54 53 54 49 38 32 42 40 30 18 20 28 30 31 30 32 30 30 26 32 29 33 25 22 21 21 21 20 25 23 20 21 22 20 19 20 26 44 36 47 52 51 50 52 54 55 55 58 63 62 61 60 59 55 56 57 59 60 59 57 54 54 54 54 54 55 55 55 55 54 54
56 55 55 55 55 55 55 54 53 53 53 52 48 52 46 33 33 30 53 51 47 34 31 33 40 36 37 36 34 29 31 25 22 25 31 32 30 29 27 19 17 18 20 18 18 21 23 18 18 17 17 18 19 21 21 22 36 30 50 49 52 53 54 58 60 63 63 60 59 59 57 59 56 58 60 60 58 54 54 53 54 54 54 54 54 54 54 54
56 55 55 54 54 55 54 54 53 53 52 51 49 33 31 32 32 31 33 33 44 45 37 38 40 38 35 35 33 29 26 23 25 25 30 36 28 26 25 18 11 14 13 20 17 17 20 19 17 16 16 17 17 19 21 22 23 21 22 33 42 52 52 55 59 62 63 59 58 60 59 59 59 60 62 64 60 54 54 53 53 53 54 54 53 54 54 54
55 55 54 54 54 54 54 53 53 52 51 48 43 30 32 32 34 34 33 31 32 35 42 38 41 40 42 39 39 36 25 23 22 22 25 30 27 22 24 16 13 12 14 11 14 12 19 14 15 16 16 19 19 15 17 21 27 24 21 35 45 52 57 60 61 62 62 59 57 57 58 58 59 60 60 62 63 63 62 56 53 53 53 54 53 53 54 54
56 55 54 54 54 53 53 53 52 51 50 41 31 32 32 34 40 39 35 33 31 33 33 35 37 39 39 36 26 23 18 24 22 25 27 29 25 24 23 20 22 20 20 10 12 18 10 9 12 15 17 16 16 16 16 20 27 20 17 48 48 54 52 50 59 61 61 57 55 57 56 56 58 60 60 61 62 64 66 66 63 54 53 53 53 54 53 53
55 55 54 54 54 53 53 52 51 52 49 40 37 35 34 36 36 35 34 32 31 32 35 35 35 35 34 31 25 20 19 23 22 21 36 26 23 26 22 21 21 20 18 13 8 7 6 7 13 14 14 15 13 15 13 10 26 20 21 43 48 55 53 50 58 60 59 58 57 57 56 54 56 56 58 61 63 64 64 65 65 65 60 58 57 54 54 53
55 55 54 54 53 53 52 51 47 48 45 40 41 41 39 39 42 35 34 34 34 34 38 21 28 25 21 25 25 21 22 26 23 26 34 25 24 23 23 25 23 21 21 21 12 9 7 8 10 12 14 13 13 11 10 9 7 12 13 26 35 52 52 58 59 58 56 55 56 55 50 51 55 57 57 59 61 61 63 62 62 62 63 64 59 56 54 54
55 54 54 54 54 52 51 40 46 45 41 34 32 35 38 40 41 39 37 34 29 33 20 19 25 25 26 21 26 26 24 22 23 29 30 25 39 23 28 23 23 21 22 20 16 10 12 12 8 8 9 12 12 11 11 9 9 13 13 19 31 50 56 59 58 56 53 51 55 55 49 48 55 55 57 58 59 59 62 62 62 62 62 62 60 57 54 53
55 54 53 53 53 51 30 25 44 44 31 33 36 41 40 38 46 39 33 28 18 21 20 21 19 19 25 24 23 23 20 22 26 28 29 46 26 34 22 22 23 27 24 25 26 21 19 20 10 6 7 8 10 10 10 10 12 11 12 25 26 53 58 58 57 54 53 56 57 56 50 47 49 53 56 58 58 58 59 61 62 62 63 62 61 60 54 52
54 54 53 52 52 51 44 47 44 34 29 32 42 42 40 40 44 39 33 17 12 17 15 13 17 20 19 20 22 19 21 25 26 25 26 26 28 24 22 21 21 21 23 23 20 22 22 22 15 8 9 7 7 9 11 12 11 13 20 37 45 54 56 57 55 51 53 53 50 55 52 47 47 52 56 58 57 57 57 57 60 61 62 63 62 62 57 53
54 53 52 52 52 49 51 49 45 35 39 44 44 42 38 43 36 34 29 15 17 17 18 15 17 16 16 17 17 16 19 34 24 25 29 27 26 23 20 21 23 23 25 22 20 22 24 20 16 7 5 5 7 8 9 8 7 9 24 54 55 56 57 57 53 53 51 46 47 53 53 46 45 55 56 57 56 56 55 56 57 60 61 62 63 63 62 55
53 53 52 51 49 50 51 51 46 42 47 45 44 40 40 38 34 32 25 16 17 12 14 15 12 12 15 14 13 14 14 19 26 25 27 25 24 24 23 26 22 22 21 24 24 22 22 34 34 17 12 11 10 8 7 7 7 27 51 53 53 55 55 54 48 48 45 40 42 52 53 49 42 51 54 55 56 56 55 55 56 58 60 62 63 62 64 59
52 51 51 51 47 50 50 33 35 47 47 45 41 34 39 37 37 31 18 12 16 12 13 13 11 12 12 11 9 10 15 21 20 25 26 23 21 21 20 18 24 23 24 23 20 21 23 22 23 23 35 27 17 19 24 18 17 47 47 44 50 49 50 48 49 46 42 39 42 51 53 51 42 44 55 56 56 56 55 54 55 56 58 60 62 62 63 62
51 50 51 49 50 53 38 25 31 44 46 44 37 36 34 28 30 25 23 29 10 8 9 6 9 7 9 23 11 12 10 22 21 22 21 21 23 20 19 18 28 16 20 20 19 23 19 20 22 19 43 18 21 14 17 20 22 36 32 41 42 42 43 43 45 42 40 39 37 48 53 49 49 47 52 56 56 57 57 55 55 55 57 59 62 62 63 64
50 50 50 50 52 49 50 46 48 48 45 42 37 36 33 29 13 23 28 18 8 9 4 9 8 7 10 10 10 16 19 15 17 18 21 26 21 22 22 18 23 20 18 23 24 20 19 22 23 21 22 27 22 15 17 18 18 28 30 37 30 32 32 32 36 35 34 33 29 51 52 47 48 46 51 51 55 57 58 57 55 55 56 58 61 61 63 64
50 50 48 50 51 50 50 55 50 49 42 46 36 36 34 23 22 54 21 12 7 10 10 8 10 14 12 10 12 16 14 17 18 16 21 23 21 20 18 18 18 16 22 26 18 22 19 19 22 21 20 23 23 20 17 19 19 19 33 30 37 33 27 28 31 32 29 27 34 51 46 42 43 44 54 57 56 55 58 58 57 55 56 58 61 61 62 64
49 49 49 51 52 52 51 50 49 51 40 36 36 36 28 26 31 24 13 8 12 9 5 7 14 12 12 12 15 17 16 16 19 20 20 20 20 21 19 16 19 19 20 16 29 28 20 20 21 24 24 24 23 24 22 19 18 20 24 32 30 29 38 27 31 28 28 35 44 45 42 43 44 52 57 58 58 56 58 59 59 57 57 59 60 60 61 63
48 51 50 50 52 50 52 51 48 47 36 33 37 31 28 30 23 18 7 11 10 5 3 9 12 10 14 14 19 16 19 15 18 22 21 22 23 20 21 19 18 18 16 17 23 19 23 19 22 25 24 21 23 26 23 21 20 22 21 26 35 35 28 31 38 39 27 25 35 42 46 49 51 52 55 58 59 58 58 59 59 59 59 60 60 60 60 62
46 51 45 48 51 52 51 49 48 40 37 33 32 29 33 33 31 22 44 6 4 5 9 10 11 11 14 12 15 15 16 18 17 20 20 24 20 25 18 19 21 19 19 18 24 24 19 17 18 24 23 22 24 24 24 25 22 20 17 18 27 33 31 28 24 28 22 19 19 44 44 45 45 44 56 57 58 58 58 59 59 60 60 60 60 60 59 60
49 51 54 53 43 50 49 48 41 38 36 36 33 48 42 31 33 25 14 6 6 11 17 18 13 13 15 16 12 14 14 15 16 23 25 25 21 23 23 18 17 19 22 23 21 22 21 19 20 26 25 24 25 26 25 28 27 30 20 21 15 27 32 33 27 20 20 20 22 40 44 45 46 48 55 56 58 58 58 58 59 60 61 60 60 60 59 59
50 43 34 35 43 48 47 46 39 38 35 31 34 31 44 37 34 31 30 14 9 11 8 15 12 16 16 14 14 14 15 17 20 29 23 24 18 22 18 19 18 18 23 20 18 24 27 19 20 26 26 27 23 26 26 27 29 28 26 24 23 22 25 31 25 33 25 21 29 30 41 39 49 53 57 57 58 59 60 59 58 60 61 61 61 60 59 59
43 33 33 39 42 48 47 41 37 32 30 28 32 34 32 27 26 28 26 13 2 6 16 14 13 16 17 17 13 14 16 19 20 21 24 27 20 22 16 19 16 18 22 21 19 25 24 26 20 20 28 24 24 24 26 28 32 27 25 26 26 28 23 20 26 22 22 23 27 32 35 40 50 58 58 58 60 61 61 60 60 60 61 61 61 61 60 60
49 36 34 39 42 46 40 36 34 32 31 33 33 28 28 26 27 25 25 10 5 12 5 9 12 10 16 16 16 17 19 17 18 17 25 25 17 18 18 19 20 20 21 22 19 22 24 25 21 26 28 28 24 24 29 30 30 28 25 28 26 25 21 15 18 22 26 23 26 31 32 43 54 59 59 60 61 61 62 62 62 62 61 62 62 61 61 61
31 23 25 37 43 41 36 33 30 33 26 28 23 28 30 43 32 25 16 14 9 10 13 11 15 14 20 19 17 22 20 21 20 20 20 17 19 15 16 19 20 22 20 22 22 22 23 30 25 28 27 30 27 30 33 33 33 30 28 29 31 28 22 18 16 20 19 25 39 36 40 47 55 58 58 59 61 61 61 61 61 62 63 64 63 63 64 64
34 29 31 40 37 29 26 26 42 42 26 26 30 26 27 28 29 22 13 15 11 13 16 14 14 16 17 19 17 13 20 21 22 20 21 18 19 19 19 21 21 25 22 19 22 20 45 26 24 27 36 41 38 35 33 33 32 32 32 32 38 40 37 24 20 24 27 40 32 40 42 47 55 57 59 60 61 61 61 61 61 62 63 63 64 65 64 64
34 37 35 37 42 31 25 24 24 26 27 27 25 21 24 23 23 19 13 13 14 13 14 16 15 15 17 16 17 16 19 20 22 23 25 25 21 23 24 24 25 25 21 20 21 22 19 25 23 26 33 37 33 34 31 31 35 35 34 34 38 43 43 34 32 37 35 42 43 36 40 47 54 57 59 60 60 60 61 61 62 61 62 63 63 64 65 65
41 43 41 43 49 30 28 26 26 28 30 27 25 21 20 20 16 18 12 12 19 12 13 13 12 13 16 19 21 25 25 19 25 24 23 25 24 32 25 28 29 28 32 34 51 27 20 28 27 19 26 28 29 31 29 29 38 40 36 37 42 44 45 38 35 38 34 44 46 45 46 50 54 56 57 58 59 60 61 62 62 62 62 62 63 64 64 64
37 26 32 38 42 37 37 33 25 29 29 32 34 29 22 19 12 19 12 13 12 13 9 14 15 18 21 23 24 24 24 27 23 27 30 28 29 26 27 26 30 39 55 51 48 34 28 33 31 32 29 30 36 39 37 41 38 37 38 39 43 46 47 43 40 40 41 45 47 48 49 51 53 55 56 57 58 59 60 61 61 61 61 62 63 64 64 63
44 33 38 41 44 43 43 40 42 43 41 35 34 29 29 21 13 12 9 15 10 10 16 18 14 14 19 23 27 25 28 28 32 28 30 32 31 29 29 31 27 54 49 47 49 36 33 24 28 37 35 33 35 39 39 40 41 33 40 42 44 46 49 48 44 41 41 41 43 50 51 50 52 55 56 57 58 58 59 60 61 61 61 62 63 63 64 64
35 40 45 47 38 37 42 41 44 45 43 38 37 32 28 23 16 17 7 10 14 18 12 19 19 24 13 13 25 25 29 33 35 30 35 34 33 28 25 27 28 39 42 25 42 30 27 25 24 27 26 28 30 34 37 37 39 40 42 43 44 46 48 49 49 49 45 43 45 51 52 51 53 55 57 57 58 58 59 60 62 62 62 62 62 62 62 63
44 46 47 49 44 45 44 44 47 46 39 40 42 40 26 17 12 11 8 14 17 11 21 23 20 19 20 29 29 29 33 25 28 34 32 29 31 29 28 29 24 29 26 28 32 40 28 27 30 27 29 27 27 31 38 41 43 43 45 44 45 45 45 46 48 50 51 50 51 51 52 52 54 56 57 57 58 59 60 61 62 62 61 62 62 62 62 63
49 48 48 51 50 48 48 47 44 42 38 42 33 32 24 18 14 14 15 23 26 24 24 18 18 23 27 37 38 28 31 29 33 30 35 30 24 32 31 27 22 27 23 23 29 31 22 26 38 30 28 27 28 33 38 41 42 43 45 48 45 46 46 47 47 48 48 48 50 49 49 50 56 57 57 58 58 60 61 60 61 61 61 62 62 62 62 63
47 52 52 49 46 46 49 45 43 42 38 37 39 39 38 32 31 28 14 24 16 22 22 18 22 24 25 23 27 28 32 33 36 31 36 24 20 28 22 25 26 26 26 22 26 27 26 25 35 32 25 25 27 34 38 41 41 42 43 43 42 43 45 45 46 49 47 45 47 47 46 47 53 57 56 57 58 58 59 60 60 61 61 61 61 62 62 63
49 51 53 49 45 51 45 46 45 39 36 36 42 41 38 33 32 30 20 20 21 20 17 19 22 25 32 21 22 22 25 18 17 26 29 22 13 26 25 22 26 24 24 21 29 22 28 28 26 28 24 27 28 33 36 35 34 37 41 44 44 45 47 48 49 51 51 49 47 44 45 51 56 57 55 56 57 57 57 58 59 61 61 61 61 62 62 63